CW3322 Weather Reports


time (UTC)temp
C
wind
direction
speed
KPH
gust
KPH
rain 1hr
cm
rain 24hr
cm
rain mn
cm
humidity
%
barometer
mb
20260506214018 10 0.0 0.0 0.00 0.08 0.08 94 1010.9
20260506213733 10 0.0 0.0 0.00 0.08 0.08 93 1010.9
20260506213015 10 0.0 0.0 0.00 0.08 0.08 93 1010.9
20260506212519 10 0.0 0.0 0.00 0.08 0.08 92 1010.9
20260506212024 10 0.0 0.0 0.00 0.08 0.08 91 1010.8
20260506211517 10 0.0 0.0 0.00 0.08 0.08 90 1010.8
20260506211022 10 0.0 0.0 0.00 0.08 0.08 91 1010.8
20260506210556 10 317 0.0 0.0 0.00 0.08 0.08 91 1010.8
20260506210018 10 311 0.0 3.2 0.00 0.08 0.08 91 1010.8
20260506205623 10 317 0.0 1.6 0.00 0.08 0.08 91 1010.8
20260506205234 10 0.0 0.0 0.00 0.08 0.08 90 1010.8
20260506204520 10 0.0 0.0 0.00 0.08 0.08 90 1009.9
20260506204311 10 321 0.0 1.6 0.00 0.08 0.08 90 1009.8
20260506203547 10 0.0 0.0 0.00 0.08 0.08 90 1009.8
20260506203021 10 308 0.0 3.2 0.00 0.08 0.08 89 1010.7
20260506202526 10 347 0.0 0.0 0.00 0.08 0.08 89 1010.8
20260506202018 10 0.0 0.0 0.00 0.08 0.08 89 1010.8
20260506201523 10 314 0.0 1.6 0.00 0.08 0.08 88 1010.0
20260506201045 10 0.0 0.0 0.00 0.08 0.08 88 1009.8
20260506200520 10 317 0.0 0.0 0.00 0.08 0.08 88 1009.8
20260506200024 10 314 0.0 1.6 0.00 0.08 0.08 88 1009.8
20260506195547 10 295 0.0 3.2 0.00 0.08 0.08 88 1009.8
20260506195021 11 294 1.6 3.2 0.00 0.08 0.08 89 1009.9
20260506194824 11 322 0.0 1.6 0.00 0.08 0.08 88 1009.8
20260506194018 11 316 1.6 3.2 0.00 0.08 0.08 88 1009.8
20260506193829 11 298 0.0 4.8 0.00 0.08 0.08 90 1009.8
20260506193015 11 304 1.6 4.8 0.00 0.08 0.08 91 1009.8
20260506192520 11 320 0.0 3.2 0.00 0.08 0.08 91 1009.8
20260506192025 11 0.0 0.0 0.00 0.08 0.08 92 1009.8
20260506191517 11 0.0 0.0 0.00 0.08 0.08 90 1009.8
20260506191023 11 0.0 0.0 0.00 0.08 0.08 90 1009.9
20260506190557 11 0.0 0.0 0.00 0.08 0.08 90 1009.9
20260506190019 11 0.0 0.0 0.00 0.08 0.08 90 1009.4
20260506185524 11 308 0.0 3.2 0.00 0.08 0.08 89 1008.9
20260506185016 11 321 0.0 0.0 0.00 0.08 0.08 90 1008.9
20260506184521 11 317 0.0 0.0 0.00 0.08 0.08 90 1008.8
20260506184125 11 314 0.0 1.6 0.00 0.08 0.08 89 1008.8
20260506183517 12 317 0.0 1.6 0.00 0.10 0.08 88 1008.9
20260506183022 12 312 0.0 3.2 0.00 0.10 0.08 89 1008.9
20260506182527 12 296 1.6 3.2 0.00 0.15 0.08 89 1008.9
20260506182019 12 39 0.0 3.2 0.00 0.20 0.08 89 1008.9
20260506181524 12 327 0.0 1.6 0.00 0.20 0.08 89 1008.9
20260506181046 12 307 0.0 3.2 0.00 0.20 0.08 89 1008.9
20260506180521 12 303 0.0 3.2 0.00 0.20 0.08 89 1008.9
20260506180026 12 311 0.0 0.0 0.00 0.20 0.08 89 1008.9
20260506175548 12 0.0 0.0 0.00 0.20 0.08 89 1008.9
20260506175023 12 305 0.0 4.8 0.00 0.23 0.08 88 1008.9
20260506174515 12 298 1.6 8.0 0.00 0.23 0.08 88 1008.9
20260506174020 12 318 0.0 0.0 0.00 0.23 0.08 88 1008.9
20260506173525 12 341 0.0 3.2 0.00 0.23 0.08 87 1008.9
20260506173047 12 355 1.6 3.2 0.00 0.23 0.08 87 1008.9
20260506172522 12 320 0.0 1.6 0.00 0.23 0.08 87 1007.9
20260506172027 12 315 0.0 3.2 0.00 0.23 0.08 87 1007.9
20260506171519 12 305 0.0 3.2 0.00 0.25 0.08 87 1007.8
20260506171037 12 315 0.0 1.6 0.00 0.30 0.08 88 1007.8
20260506170529 12 327 0.0 0.0 0.00 0.30 0.08 88 1007.8
20260506170052 12 0.0 0.0 0.00 0.30 0.08 88 1007.8
20260506165555 12 316 0.0 1.6 0.00 0.33 0.08 88 1007.8
20260506165018 12 321 0.0 1.6 0.00 0.33 0.08 88 1007.8
20260506164522 12 320 0.0 3.2 0.00 0.33 0.08 89 1007.8
20260506164027 12 304 0.0 3.2 0.00 0.33 0.08 88 1007.8
20260506163519 12 322 0.0 1.6 0.00 0.33 0.08 88 1007.8
20260506163024 13 318 0.0 1.6 0.00 0.33 0.08 88 1007.8
20260506162516 13 307 1.6 1.6 0.00 0.33 0.08 87 1007.8
20260506162451 13 7 0.0 3.2 0.00 0.33 0.08 87 1007.8
20260506161525 13 17 0.0 8.0 0.00 0.33 0.08 86 1007.9
20260506161118 13 296 1.6 4.8 0.00 0.33 0.08 85 1007.9
20260506160715 14 296 1.6 8.0 0.00 0.33 0.08 85 1007.9
20260506160027 14 331 0.0 0.0 0.00 0.33 0.08 85 1007.9
20260506155519 15 292 1.6 9.7 0.00 0.33 0.08 84 1007.9
20260506155023 15 358 1.6 3.2 0.00 0.33 0.08 85 1007.9
20260506154546 15 288 0.0 6.4 0.00 0.33 0.08 86 1007.9
20260506154050 14 4 0.0 1.6 0.00 0.33 0.08 86 1007.9
20260506153525 14 0.0 0.0 0.00 0.33 0.08 87 1007.9
20260506153018 14 315 0.0 3.2 0.00 0.33 0.08 88 1007.9
20260506152523 14 284 1.6 8.0 0.00 0.33 0.08 89 1007.9
20260506152249 14 299 1.6 3.2 0.00 0.33 0.08 87 1007.9
20260506151520 14 310 0.0 3.2 0.00 0.33 0.08 87 1007.9
20260506151353 15 316 0.0 3.2 0.00 0.33 0.08 87 1007.9
20260506150517 15 320 0.0 3.2 0.00 0.33 0.08 87 1007.9
20260506150022 15 294 1.6 9.7 0.00 0.33 0.08 88 1007.9
20260506145527 14 288 0.0 3.2 0.00 0.33 0.08 88 1007.9
20260506145019 14 276 0.0 3.2 0.00 0.33 0.08 89 1007.9
20260506144524 14 303 0.0 8.0 0.00 0.33 0.08 90 1007.9
20260506144046 14 295 1.6 9.7 0.00 0.33 0.08 91 1007.9
20260506143522 13 313 0.0 9.7 0.00 0.33 0.08 92 1007.9
20260506143026 13 319 0.0 1.6 0.00 0.33 0.08 93 1007.9
20260506142519 13 304 1.6 3.2 0.00 0.36 0.08 93 1007.9
20260506142023 13 316 0.0 3.2 0.00 0.38 0.08 93 1007.9
20260506141516 13 297 0.0 4.8 0.00 0.46 0.08 93 1007.9
20260506141021 14 284 0.0 3.2 0.00 0.51 0.08 93 1008.0
20260506140525 14 303 1.6 9.7 0.03 0.56 0.08 92 1008.0
20260506140118 14 356 0.0 1.6 0.03 0.56 0.08 93 1008.0
20260506135523 14 0.0 0.0 0.03 0.56 0.08 94 1008.0
20260506135015 13 0.0 0.0 0.03 0.58 0.08 96 1007.9
20260506134520 13 0.0 0.0 0.03 0.61 0.08 97 1007.9
20260506134024 13 320 0.0 1.6 0.03 0.61 0.08 97 1007.9
20260506133517 13 310 1.6 3.2 0.03 0.64 0.08 97 1007.9
20260506133052 13 315 0.0 9.7 0.03 0.64 0.08 96 1007.9
20260506132526 13 304 1.6 8.0 0.03 0.64 0.08 96 1007.9
20260506132019 13 309 1.6 4.8 0.03 0.64 0.08 96 1007.9
20260506131523 13 303 1.6 3.2 0.03 0.64 0.08 96 1008.0
20260506131016 13 305 1.6 3.2 0.05 0.64 0.08 96 1007.9
20260506130533 13 299 1.6 8.0 0.03 0.61 0.05 96 1007.3
20260506130056 13 294 3.2 8.0 0.03 0.61 0.05 95 1007.0
20260506125519 13 297 1.6 8.0 0.03 0.61 0.05 95 1007.0
20260506125023 13 301 1.6 8.0 0.03 0.61 0.05 95 1007.0
20260506124516 13 310 0.0 3.2 0.03 0.61 0.05 96 1007.0
20260506124020 13 311 0.0 3.2 0.03 0.64 0.05 96 1007.0
20260506123525 13 0.0 0.0 0.03 0.64 0.05 95 1007.0
20260506123118 13 312 0.0 3.2 0.03 0.64 0.05 95 1007.0
20260506122522 13 0.0 0.0 0.03 0.64 0.05 92 1007.0
20260506122015 14 322 0.0 3.2 0.03 0.64 0.05 90 1007.0
20260506121520 14 0.0 0.0 0.03 0.64 0.05 89 1007.0
20260506121449 14 277 3.2 8.0 0.00 0.61 0.03 85 1007.0
20260506120554 15 307 1.6 3.2 0.00 0.64 0.03 85 1007.0
20260506120022 14 6 1.6 8.0 0.00 0.64 0.03 84 1007.0
20260506115527 14 312 1.6 4.8 0.00 0.64 0.03 85 1007.0
20260506115019 15 307 1.6 8.0 0.00 0.64 0.03 85 1007.0
20260506114537 15 334 1.6 9.7 0.00 0.64 0.03 83 1007.0
20260506114030 15 309 1.6 3.2 0.00 0.64 0.03 84 1007.0
20260506113522 15 337 1.6 3.2 0.00 0.64 0.03 82 1007.0
20260506113026 15 353 1.6 3.2 0.00 0.64 0.03 83 1007.0
20260506112519 15 319 3.2 4.8 0.00 0.64 0.03 84 1007.0
20260506112023 15 302 1.6 4.8 0.00 0.66 0.03 85 1007.0
20260506111516 15 305 1.6 11.3 0.00 0.66 0.03 85 1007.0
20260506111021 15 304 1.6 6.4 0.00 0.66 0.03 85 1007.0
20260506110525 15 295 3.2 8.0 0.00 0.66 0.03 84 1007.0
20260506110018 15 303 3.2 9.7 0.00 0.66 0.03 84 1007.0
20260506105524 15 290 3.2 11.3 0.00 0.66 0.03 84 1007.0
20260506105046 14 312 1.6 4.8 0.00 0.66 0.03 88 1007.0
20260506104516 14 303 1.6 9.7 0.00 0.66 0.03 90 1007.0
20260506104021 14 300 1.6 4.8 0.00 0.66 0.03 89 1007.0
20260506103525 14 299 1.6 4.8 0.00 0.66 0.03 89 1007.0
20260506103018 13 309 1.6 3.2 0.00 0.66 0.03 91 1006.9
20260506102523 13 303 1.6 9.7 0.00 0.66 0.03 90 1006.9
20260506102016 13 302 1.6 3.2 0.00 0.66 0.03 90 1006.9
20260506101521 13 289 3.2 9.7 0.00 0.66 0.03 91 1006.9
20260506101026 13 277 1.6 9.7 0.00 0.66 0.03 91 1006.9
20260506100518 13 288 3.2 8.0 0.00 0.66 0.03 92 1006.9
20260506100023 13 290 3.2 8.0 0.00 0.66 0.03 91 1006.9
20260506095516 13 307 1.6 3.2 0.00 0.66 0.03 92 1006.9
20260506095021 13 290 1.6 8.0 0.00 0.66 0.03 92 1006.9
20260506094526 13 309 0.0 3.2 0.00 0.66 0.03 94 1006.9
20260506094019 13 311 1.6 4.8 0.00 0.66 0.03 94 1006.9
20260506093523 13 286 3.2 9.7 0.00 0.66 0.03 94 1006.9
20260506093016 13 292 1.6 11.3 0.00 0.66 0.03 94 1006.9
20260506092521 13 300 1.6 8.0 0.00 0.66 0.03 95 1006.9
20260506092026 13 316 1.6 11.3 0.00 0.66 0.03 94 1006.9
20260506091519 13 314 1.6 3.2 0.00 0.66 0.03 94 1006.9
20260506091219 12 274 1.6 6.4 0.00 0.66 0.03 95 1006.9
20260506090516 12 299 0.0 3.2 0.00 0.66 0.03 96 1006.9
20260506090254 12 312 1.6 3.2 0.00 0.66 0.03 96 1006.9
20260506085526 12 310 0.0 3.2 0.00 0.66 0.03 97 1006.9
20260506085018 12 302 1.6 3.2 0.00 0.66 0.03 97 1006.9
20260506084523 12 316 0.0 3.2 0.00 0.66 0.03 98 1006.9
20260506084016 12 297 1.6 3.2 0.00 0.66 0.03 97 1006.9
20260506083551 12 293 1.6 9.7 0.00 0.66 0.03 98 1006.9
20260506083026 12 315 0.0 3.2 0.00 0.66 0.03 98 1006.9
20260506082518 12 312 1.6 3.2 0.00 0.66 0.03 98 1006.9
20260506082023 12 315 0.0 3.2 0.00 0.66 0.03 98 1006.9
20260506081515 12 312 1.6 3.2 0.00 0.66 0.03 98 1006.9
20260506081020 12 319 0.0 3.2 0.00 0.66 0.03 99 1006.9
20260506080524 12 305 1.6 8.0 0.00 0.66 0.03 99 1006.9
20260506073527 12 310 1.6 3.2 0.00 0.66 0.03 99 1007.0
20260506073019 12 307 1.6 8.0 0.00 0.66 0.03 99 1007.0
20260506072523 12 336 0.0 3.2 0.00 0.66 0.03 99 1007.0
20260506072016 11 309 1.6 3.2 0.00 0.66 0.03 99 1006.9
20260506071750 11 303 0.0 3.2 0.00 0.66 0.03 99 1006.9
20260506071025 11 304 1.6 3.2 0.00 0.66 0.03 99 1007.0
20260506070516 11 310 0.0 3.2 0.00 0.66 0.03 99 1007.0
20260506070104 11 317 0.0 3.2 0.00 0.66 0.03 99 1007.0
20260506062020 11 273 0.0 4.8 0.00 0.66 0.03 99 1006.9
20260506061525 11 299 1.6 3.2 0.00 0.66 0.03 99 1006.9
20260506061017 11 315 0.0 1.6 0.00 0.66 0.03 99 1007.0
20260506060521 11 340 0.0 1.6 0.00 0.66 0.03 99 1007.0
20260506051021 10 319 0.0 3.2 0.00 0.66 0.03 99 1006.9
20260506050526 10 317 0.0 1.6 0.00 0.66 0.03 99 1006.9
20260506045015 10 297 0.0 3.2 0.00 0.66 0.03 99 1006.9
20260506044520 10 0.0 0.0 0.00 0.66 0.03 99 1006.9
20260506044218 10 0.0 0.0 0.00 0.66 0.03 99 1006.9
20260506043516 10 0.0 0.0 0.00 0.66 0.03 99 1006.9
20260506043313 9 0.0 0.0 0.00 0.66 0.03 99 1006.9
20260506042525 9 0.0 0.0 0.00 0.66 0.03 99 1006.9
20260506042017 9 0.0 0.0 0.00 0.66 0.03 99 1006.9
20260506041552 9 0.0 0.0 0.00 0.66 0.03 99 1006.9
20260506041026 9 0.0 0.0 0.00 0.66 0.03 99 1006.9
20260506040518 9 0.0 0.0 0.00 0.66 0.03 99 1006.9
20260506040023 9 0.0 0.0 0.00 0.66 0.03 99 1006.9
20260506035515 9 0.0 0.0 0.00 0.66 0.03 99 1006.9
20260506035019 9 0.0 0.0 0.00 0.66 0.03 99 1006.9
20260506034524 9 312 0.0 3.2 0.00 0.66 0.03 99 1006.9
20260506034116 9 0.0 0.0 0.00 0.66 0.03 99 1006.9
20260506033520 9 0.0 0.0 0.00 0.66 0.03 99 1006.9
20260506033025 9 0.0 0.0 0.03 0.66 0.03 99 1006.9
20260506032518 10 0.0 0.0 0.03 0.66 0.03 99 1006.9
20260506032022 10 0.0 0.0 0.03 0.66 0.03 99 1006.9
20260506031526 10 0.0 0.0 0.03 0.66 0.03 99 1006.9
20260506031019 10 0.0 0.0 0.03 0.66 0.03 99 1006.9
20260506030523 10 0.0 0.0 0.03 0.66 0.03 99 1006.9
20260506030016 10 0.0 0.0 0.03 0.66 0.03 99 1006.9
20260506025520 10 0.0 0.0 0.03 0.66 0.03 99 1006.9
20260506025025 10 0.0 0.0 0.03 0.66 0.03 99 1006.9
20260506024517 10 0.0 0.0 0.03 0.66 0.03 99 1006.9
20260506024022 10 0.0 0.0 0.03 0.66 0.03 99 1006.9
20260506023526 10 0.0 0.0 0.03 0.66 0.03 99 1006.9
20260506023019 10 0.0 0.0 0.00 0.64 0.00 99 1006.9
20260506022537 10 0.0 0.0 0.00 0.64 0.00 99 1007.0
20260506022059 10 0.0 0.0 0.00 0.64 0.00 99 1007.0
20260506021551 10 0.0 0.0 0.00 0.64 0.00 99 1007.0
20260506021025 10 0.0 0.0 0.00 0.64 0.00 99 1007.0
20260506020517 11 0.0 0.0 0.00 0.64 0.00 99 1007.0
20260506020022 11 0.0 0.0 0.00 0.64 0.00 99 1007.0
20260506015526 11 0.0 0.0 0.00 0.64 0.00 99 1007.0
20260506015049 11 0.0 0.0 0.00 0.64 0.00 99 1007.0
20260506014523 11 0.0 0.0 0.00 0.64 0.00 99 1007.0
20260506014016 11 0.0 0.0 0.00 0.64 0.00 99 1007.0
20260506013521 11 0.0 0.0 0.00 0.64 0.00 99 1007.8
20260506013025 11 0.0 0.0 0.00 0.64 0.00 99 1008.0
20260506012518 11 0.0 0.0 0.00 0.64 0.00 99 1008.0
20260506012022 11 0.0 0.0 0.00 0.64 0.00 99 1007.3
20260506011527 11 0.0 0.0 0.00 0.64 0.00 99 1007.0
20260506011119 11 0.0 0.0 0.00 0.64 0.00 99 1007.0
20260506010943 11 336 0.0 0.0 0.00 0.64 0.00 99 1007.0
20260506010016 11 0.0 0.0 0.00 0.64 0.00 99 1007.0
20260506005521 11 0.0 0.0 0.00 0.64 0.00 99 1007.0
20260506005026 11 0.0 0.0 0.00 0.64 0.00 99 1007.7
20260506004518 11 0.0 0.0 0.00 0.64 0.00 99 1008.0
20260506004023 11 0.0 0.0 0.00 0.64 0.00 99 1008.0
20260506003515 12 0.0 0.0 0.00 0.64 0.00 99 1008.1
20260506003020 12 0.0 0.0 0.00 0.64 0.00 99 1008.1
20260506002524 12 0.0 0.0 0.00 0.64 0.00 99 1008.1
20260506002017 12 0.0 0.0 0.00 0.64 0.00 99 1008.1
20260506001522 12 318 0.0 1.6 0.00 0.64 0.00 99 1008.1
20260506001126 12 319 0.0 1.6 0.00 0.64 0.00 99 1008.1
20260506000519 12 323 0.0 0.0 0.00 0.64 0.00 99 1008.0
20260506000024 12 309 0.0 1.6 0.00 0.64 0.00 99 1008.0
20260505235516 12 316 0.0 3.2 0.00 0.64 0.00 99 1008.0
20260505235021 12 319 0.0 0.0 0.00 0.64 0.00 99 1008.0
20260505234526 12 318 0.0 1.6 0.00 0.64 0.00 99 1008.0
20260505234018 12 311 1.6 3.2 0.00 0.64 0.00 99 1008.0
20260505233553 12 313 0.0 1.6 0.00 0.64 0.00 99 1008.1
20260505233016 12 321 0.0 1.6 0.00 0.64 0.00 99 1008.1
20260505232520 11 324 0.0 3.2 0.00 0.64 0.00 99 1008.0
20260505232055 11 0.0 0.0 0.00 0.64 0.00 99 1008.0
20260505231518 11 0.0 0.0 0.00 0.64 0.00 99 1008.0
20260505231022 11 0.0 0.0 0.00 0.64 0.00 99 1008.0
20260505230545 11 0.0 0.0 0.00 0.64 0.00 99 1008.0
20260505230019 11 0.0 0.0 0.00 0.64 0.00 99 1008.0
20260505225524 11 0.0 0.0 0.00 0.64 0.00 99 1008.0
20260505225016 11 0.0 0.0 0.00 0.64 0.00 99 1008.0
20260505224516 11 0.0 0.0 0.00 0.64 0.00 99 1008.0
20260505224120 11 0.0 0.0 0.00 0.64 0.00 99 1008.0
20260505223525 11 0.0 0.0 0.00 0.64 0.00 99 1008.0
20260505223017 11 0.0 0.0 0.00 0.64 0.00 99 1008.0
20260505222522 11 0.0 0.0 0.00 0.64 0.00 99 1008.0
20260505222027 11 0.0 0.0 0.00 0.64 0.00 99 1008.0
20260505221519 11 0.0 0.0 0.00 0.64 0.00 99 1008.0
20260505221107 11 0.0 0.0 0.00 0.64 0.00 99 1008.0
20260505220530 11 0.0 0.0 0.00 0.64 0.00 99 1008.0
20260505220052 11 0.0 0.0 0.00 0.64 0.00 99 1008.0
20260505215526 11 0.0 0.0 0.00 0.64 0.64 99 1008.0
20260505215018 11 0.0 0.0 0.00 0.64 0.64 99 1008.0
20260505214523 11 0.0 0.0 0.00 0.64 0.64 99 1008.0